Location: La Savane
(18.0962°N, 63.0646°W)
Time: 16:29:19
(UTC+00:00)

Cosmos 1408 - Pass Details

Date: 29 October 2020
Orbit: 470 x 492 km, 82.6° (Epoch: 27 November)

Event Time Altitude Azimuth Distance (km) Brightness Sun altitude
Rises 23:03:05 0° 353° (N) 2,551 6.2 -19.9°
Reaches altitude 10° 23:05:11 10° 351° (N) 1,673 5.3 -20.4°
Maximum altitude 23:08:50 75° 267° (W) 510 2.7 -21.3°
Drops below altitude 10° 23:12:30 10° 181° (S) 1,677 5.4 -22.1°
Sets 23:14:36 0° 179° (S) 2,558 6.3 -22.6°
